Regional Weather Roundup
Issued by NWS New Orleans/Baton Rouge, LA

Home | Current Version | Previous Version | Text Only | Print | Product List | Glossary Off
Versions: 1 2 3 4 5 6 7 8 9 10 11 12 13 14 15 16 17 18 19 20 21 22 23 24 25 26 27 28 29 30 31 32 33 34 35 36 37 38 39 40 41 42 43 44 45 46 47 48 49 50

069
ASUS44 KLIX 170410
RWRLIX
NEW ORLEANS REGIONAL WEATHER ROUNDUP
NATIONAL WEATHER SERVICE NEW ORLEANS LA
1100 PM CDT TUE SEP 16 2014

NOTE: "FAIR" INDICATES FEW OR NO CLOUDS BELOW 12,000 FEET WITH NO
      SIGNIFICANT WEATHER AND/OR OBSTRUCTIONS TO VISIBILITY.
      SKY/WX - SKY CONDITION AND SIGNIFICANT WEATHER.
      TMP - AIR TEMPERATURE.     DP    - DEWPOINT TEMPERATURE.
      RH  - RELATIVE HUMIDITY.   PRES  - PRESSURE.
      HI  - HEAT INDEX.          WCI   - WIND CHILL INDEX.

*  THESE STATIONS ARE NOT NWS OR FAA STATIONS AND ARE NOT UNDER
   NWS QUALITY CONTROL.

LAZ038-040-048-061>063-065>067-069-170500-
SOUTHEAST LOUISIANA

CITY           SKY/WX    TMP DP  RH WIND       PRES   REMARKS
N.O. AUDUBON   NOT AVBL
N.O. INTL ARPT CLOUDY    77  73  87 N8        30.02F
N.O. LAKEFRONT CLOUDY    79  75  87 N15       30.03S
N.O. DOWNTOWN* MOCLDY    79  72  78 N3        30.03S
SLIDELL        CLOUDY    75  72  90 N3        30.03S
BATON ROUGE    CLOUDY    74  72  93 NE3       30.03S
BOOTHVILLE     CLOUDY    78  76  93 W5        30.02F
BELLE CHASSE   CLOUDY    77  73  87 CALM      30.02S
BOGALUSA*      CLOUDY    76  71  87 CALM      30.06S
GALLIANO*      NOT AVBL
NEW ROADS*     CLOUDY    74  73  98 CALM      30.03F
GONZALES*        N/A     72  72 100 CALM      30.03R
HAMMOND*       CLOUDY    75  70  83 CALM      30.05S
HOUMA*         CLOUDY    76  73  88 NE6       30.02S
PORT FOURCHON* NOT AVBL

$$

MSZ070-080>082-170500-
SOUTHERN MISSISSIPPI

CITY           SKY/WX    TMP DP  RH WIND       PRES   REMARKS
MCCOMB         MOCLDY    73  71  93 CALM      30.03F
GULFPORT       CLOUDY    74  72  93 N3        30.02S
BILOXI         CLOUDY    74  72  94 N2        30.01F
PASCAGOULA     CLOUDY    73  72  96 N6        30.01F

$$

COASTAL OBSERVATIONS
LAKE AND NEARSHORE STATIONS

STATION/POSITION TIME  TEMP    WIND        PRES    WAVE
                       AIR SEA DIR/SP/G            HT/PER
                 (UTC) (F)     (DEG/KT/KT) (MB)    (FT/S)
PASCAGOULA       0400   75     350/  5/  7 1015.5
WAVELAND YACHT   0400   75     350/ 11/ 13 1016.0
GRAND ISLE       0400   80 84  320/  5/  6 1017.1
SOUTHWEST PASS   0400   81 90  300/  7/ 10 1016.8
NEW CANAL        0400   80 82  360/  8/ 11 1017.2
SHELL BEACH      0400   80 80  320/  7/  8 1016.4

OFFSHORE STATIONS

STATION/POSITION TIME  TEMP    WIND        PRES    WAVE
                       AIR SEA DIR/SP/G            HT/PER
                 (UTC) (F)     (DEG/KT/KT) (MB)    (FT/S)
64 S DAUPHIN ISL 0309   80 85  280/ 12/ 14 1016.1    3/ 5

$$




USA.gov is the U.S. government's official web portal to all federal, state and local government web resources and services.